Location: Roah Hook
(42.4840°N, 73.7893°W)
Time: 18:09:14
(UTC+00:00)

NOAA 15 - Visible Passes

Search period start: 05 December 2024 00:00
Search period end: 15 December 2024 00:00
Orbit: 795 x 810 km, 98.6° (Epoch: 05 December)

Date Brightness Start Highest point End Pass type
(mag) Time Alt. Az. Time Alt. Az. Time Alt. Az.
05 Dec 5.9 00:16:53 10° SSW 00:21:48 38° W 00:26:44 10° NNW visible
05 Dec 5.9 22:13:09 10° ESE 22:16:35 18° ENE 22:20:01 10° NNE visible
05 Dec 4.9 23:50:30 10° S 23:55:46 66° WSW 00:01:03 10° NNW visible
06 Dec 6.4 21:49:54 10° ENE 21:51:02 11° NE 21:52:10 10° NE visible
06 Dec 4.4 23:24:33 10° SSE 23:29:50 74° ENE 23:35:07 10° N visible
07 Dec 7.3 01:07:21 10° WSW 01:10:06 14° W 01:12:52 10° WNW visible
07 Dec 4.9 22:59:01 10° SE 23:03:59 43° ENE 23:08:59 10° N visible
08 Dec 6.6 00:39:37 10° SSW 00:43:53 25° W 00:48:10 10° NW visible
08 Dec 7.5 11:14:14 10° NE 11:17:13 15° E 11:20:11 10° SE visible
08 Dec 5.5 22:33:54 10° ESE 22:38:15 27° ENE 22:42:36 10° N visible
09 Dec 5.7 00:12:46 10° SSW 00:17:45 42° W 00:22:46 10° NNW visible
09 Dec 6.0 22:09:24 10° E 22:12:37 17° ENE 22:15:49 10° NNE visible
09 Dec 4.7 23:46:28 10° S 23:51:45 72° WSW 23:57:02 10° NNW visible
10 Dec 4.5 23:20:35 10° SSE 23:25:49 68° ENE 23:31:05 10° N visible
11 Dec 7.3 01:02:58 10° SW 01:06:02 15° W 01:09:07 10° NW visible
11 Dec 7.2 11:35:09 10° NE 11:39:22 24° E 11:43:33 10° SSE visible
11 Dec 4.9 22:55:06 10° SE 23:00:00 40° ENE 23:04:54 10° N visible
12 Dec 6.5 00:35:25 10° SSW 00:39:49 26° W 00:44:15 10° NW visible
12 Dec 7.6 11:10:29 10° ENE 11:13:08 14° E 11:15:46 10° ESE visible
12 Dec 5.5 22:30:04 10° ESE 22:34:16 25° ENE 22:38:28 10° N visible
13 Dec 5.6 00:08:40 10° S 00:13:43 45° W 00:18:47 10° NNW visible
13 Dec 6.1 22:05:41 10° E 22:08:38 15° ENE 22:11:36 10° NNE visible
13 Dec 4.6 23:42:25 10° S 23:47:42 78° WSW 23:53:00 10° NNW visible
14 Dec 4.5 23:16:35 10° SSE 23:21:48 63° ENE 23:27:00 10° N visible
